星链-32102 (STARLINK-32102 )

导读

STARLINK-32102是美国SpaceX星链星座的卫星,于2024年5月8日发射升空,归属星链互联网卫星星座项目,该项目旨在为全球提供低延迟、高速率的宽带互联网覆盖服务。作为星链批量部署的卫星之一,它依托近地轨道运行,进一步扩充了星链星座的组网规模,助力全球网络覆盖能力提升。

基本信息
目录编号:
59699
目录名称:
STARLINK-32102
国际标识:
2024-086T
轨道中心:
EARTH
卫星名称:
星链-32102
卫星全名:
星链-32102 (STARLINK-32102 )
卫星状态:
在轨 (已飞行771 天)
发射日期:
2024-05-08 UTC
国别 :
美国 (US)
星等 :
--
轨道信息
数据来源 国际轨道数据
星历时间: 2026-06-16T22:51:17+0800
1天前
查看轨道信息
半长轴: 6861.214km
偏心率: 0.0002426
轨道倾角: 43.004°
近地点辐角 263.462°
升交点赤经 221.067°
平近点角 96.595°
近地点: 481.412km
远地点: 484.742km
周期: 94.267分钟
每日圈数: 15.275709
详细信息
固有亮度:
5
最大亮度:
1.5
卫星平台:
Starlink v2.0 mini
覆盖范围:
全球
运营商:
太空探索技术公司
运营商所在国:
美国
制造商(研发单位):
太空探索技术公司
制造商所在国:
美国
使用方式:
暂无
卫星简介
星链(Starlink)计划是由太空探索技术公司(SpaceX)提出的一个巨型低轨卫星互联网星座项目,计划在2019年至2024年间在太空搭建由约1.2万颗卫星组成的“星链”网络,其中1584颗将部署在地球上空550千米处的近地轨道,并从2020年开始工作。该卫星仍在工作。
2D轨道图
3D轨道图
轨道高度分析图
轨道倾角分析图
轨道综合分析图
查看轨道综合分析图